AA9VI-10 Weather Reports


Display with metric or nautical units.
time (UTC)temp
F
wind
direction
speed
MPH
gust
MPH
rain 1hr
in
rain 24hr
in
rain mn
in
humidity
%
barometer
mb
20260901220016 91 203 4.0 11.0 0.00 0.01 0.00 62 1014.0
20260901215016 91 203 2.0 5.0 0.00 0.01 0.00 64 1013.9
20260901214016 92 203 2.0 5.0 0.00 0.01 0.00 62 1013.9
20260901213016 92 203 1.0 4.0 0.00 0.02 0.00 63 1013.9
20260901212016 92 203 1.0 4.0 0.00 0.02 0.00 61 1014.0
20260901211016 92 225 2.0 6.0 0.00 0.02 0.00 61 1014.1
20260901210016 93 180 2.0 9.0 0.00 0.02 0.00 60 1014.2
20260901205016 93 203 3.0 7.0 0.00 0.02 0.00 60 1014.2
20260901204016 93 203 3.0 7.0 0.00 0.02 0.00 60 1014.2
20260901203016 93 203 3.0 8.0 0.00 0.02 0.00 60 1014.4
20260901202016 93 203 3.0 9.0 0.00 0.02 0.00 61 1014.3
20260901201016 94 225 3.0 8.0 0.00 0.02 0.00 60 1014.4
20260901200018 94 248 1.0 2.0 0.00 0.03 0.00 62 1014.5
20260901195016 93 225 2.0 6.0 0.00 0.03 0.00 61 1014.4
20260901194016 93 203 2.0 7.0 0.00 0.03 0.00 60 1014.5
20260901193016 94 180 3.0 8.0 0.00 0.03 0.00 60 1014.6
20260901192016 94 203 2.0 7.0 0.00 0.03 0.00 60 1014.6
20260901191016 94 203 2.0 10.0 0.00 0.03 0.00 58 1014.6
20260901190016 94 225 1.0 4.0 0.00 0.03 0.00 58 1014.8
20260901185016 93 225 1.0 6.0 0.00 0.04 0.00 61 1014.6
20260901184016 93 225 2.0 6.0 0.00 0.04 0.00 63 1014.9
20260901183016 93 225 2.0 7.0 0.00 0.04 0.00 62 1014.9
20260901182016 93 135 1.0 7.0 0.00 0.04 0.00 61 1014.9
20260901181016 92 180 2.0 6.0 0.00 0.04 0.00 61 1014.8
20260901180016 92 248 1.0 4.0 0.00 0.04 0.00 64 1015.0
20260901175016 92 180 1.0 5.0 0.00 0.04 0.00 64 1015.1
20260901174017 91 45 1.0 4.0 0.00 0.04 0.00 68 1015.2
20260901173016 91 225 1.0 3.0 0.00 0.04 0.00 67 1015.3
20260901172016 90 0.0 3.0 0.00 0.04 0.00 70 1015.2
20260901171016 89 225 2.0 5.0 0.00 0.04 0.00 70 1015.3
20260901170016 88 248 1.0 3.0 0.00 0.04 0.00 71 1015.4
20260901165016 87 270 1.0 3.0 0.00 0.04 0.00 73 1015.5
20260901164016 87 0.0 4.0 0.00 0.04 0.00 75 1015.7
20260901163016 86 23 1.0 3.0 0.00 0.04 0.00 75 1015.7
20260901162016 85 248 1.0 3.0 0.00 0.04 0.00 78 1015.6
20260901161016 84 225 1.0 5.0 0.00 0.04 0.00 77 1015.6
20260901160016 84 180 1.0 4.0 0.00 0.04 0.00 78 1015.5
20260901155016 83 270 1.0 3.0 0.00 0.04 0.00 79 1015.5
20260901154016 82 248 1.0 2.0 0.00 0.04 0.00 80 1015.5
20260901153017 82 225 1.0 3.0 0.00 0.04 0.00 80 1015.5
20260901152016 82 225 1.0 4.0 0.00 0.05 0.00 80 1015.4
20260901151016 82 0.0 3.0 0.00 0.05 0.00 81 1015.4
20260901150016 81 225 2.0 4.0 0.00 0.05 0.00 80 1015.4
20260901145016 81 203 2.0 6.0 0.00 0.05 0.00 80 1015.4
20260901144016 81 225 1.0 4.0 0.00 0.06 0.00 80 1015.3
20260901143016 81 0.0 4.0 0.00 0.06 0.00 81 1015.3
20260901142016 81 203 2.0 5.0 0.00 0.06 0.00 81 1015.3
20260901141016 80 203 2.0 5.0 0.00 0.07 0.00 82 1015.3
20260901140016 80 203 2.0 6.0 0.00 0.07 0.00 82 1015.3
20260901135016 79 203 1.0 3.0 0.00 0.08 0.00 83 1015.3
20260901134016 79 225 1.0 4.0 0.00 0.09 0.00 83 1015.3
20260901133016 78 203 3.0 6.0 0.00 0.10 0.00 84 1015.2
20260901132016 78 203 2.0 6.0 0.00 0.11 0.00 85 1015.3
20260901131016 77 203 2.0 4.0 0.00 0.13 0.00 86 1015.3
20260901130016 76 203 2.0 6.0 0.00 0.13 0.00 87 1015.4
20260901125016 76 203 2.0 4.0 0.00 0.13 0.00 88 1015.3
20260901124016 76 225 2.0 4.0 0.00 0.13 0.00 88 1015.2
20260901123016 75 225 1.0 3.0 0.00 0.13 0.00 89 1015.2
20260901122016 75 203 1.0 3.0 0.00 0.14 0.00 89 1015.1
20260901121016 75 203 1.0 3.0 0.00 0.16 0.00 89 1015.1
20260901120016 75 225 1.0 2.0 0.00 0.17 0.00 89 1015.0
20260901115016 74 203 1.0 4.0 0.00 0.21 0.00 89 1014.8
20260901114016 74 203 1.0 3.0 0.00 0.21 0.00 89 1014.7
20260901113016 74 225 1.0 2.0 0.00 0.21 0.00 89 1014.7
20260901112016 74 0.0 0.0 0.00 0.21 0.00 89 1014.6
20260901111016 74 0.0 2.0 0.00 0.21 0.00 89 1014.6
20260901110016 74 203 1.0 2.0 0.00 0.21 0.00 89 1014.4
20260901105015 74 203 2.0 4.0 0.00 0.21 0.00 89 1014.3
20260901104016 74 203 1.0 3.0 0.00 0.21 0.00 89 1014.3
20260901103016 74 203 1.0 3.0 0.00 0.21 0.00 89 1014.3
20260901102016 74 0.0 2.0 0.00 0.21 0.00 89 1014.2
20260901101016 75 0.0 0.0 0.00 0.21 0.00 88 1014.2
20260901100015 75 0.0 0.0 0.00 0.21 0.00 88 1014.2
20260901095015 75 0.0 0.0 0.00 0.21 0.00 88 1014.1
20260901094016 75 0.0 2.0 0.00 0.21 0.00 88 1014.1
20260901093016 75 0.0 1.0 0.00 0.21 0.00 87 1014.2
20260901092016 75 0.0 2.0 0.00 0.21 0.00 87 1014.1
20260901091016 75 0.0 1.0 0.00 0.21 0.00 87 1014.0
20260901090016 76 0.0 1.0 0.00 0.21 0.00 87 1013.9
20260901085015 76 0.0 0.0 0.00 0.21 0.00 86 1013.9
20260901084016 76 0.0 0.0 0.00 0.21 0.00 86 1013.9
20260901083016 76 0.0 2.0 0.00 0.21 0.00 86 1013.8
20260901082016 76 248 1.0 6.0 0.00 0.21 0.00 86 1013.8
20260901081015 76 203 1.0 3.0 0.00 0.21 0.00 85 1013.8
20260901080016 77 203 1.0 5.0 0.00 0.21 0.00 85 1013.8
20260901075016 77 225 1.0 3.0 0.00 0.21 0.00 85 1013.8
20260901074015 77 203 1.0 3.0 0.00 0.21 0.00 85 1014.0
20260901073017 77 203 1.0 4.0 0.00 0.21 0.00 85 1014.0
20260901072016 77 225 1.0 3.0 0.00 0.21 0.00 85 1013.9
20260901071015 77 225 1.0 3.0 0.00 0.21 0.00 85 1013.8
20260901070016 77 203 1.0 4.0 0.00 0.21 0.00 85 1013.9
20260901065016 77 225 1.0 3.0 0.00 0.21 0.00 85 1013.8
20260901064016 77 225 1.0 3.0 0.00 0.21 0.00 85 1013.9
20260901063016 77 225 1.0 2.0 0.00 0.21 0.00 85 1014.0
20260901062015 77 225 1.0 4.0 0.00 0.21 0.00 85 1014.0
20260901061015 77 203 1.0 2.0 0.00 0.21 0.00 85 1013.9
20260901060016 77 203 1.0 2.0 0.00 0.21 0.00 85 1013.8
20260901055016 77 0.0 2.0 0.00 0.21 0.00 85 1013.9
20260901054016 77 225 1.0 4.0 0.00 0.21 0.00 85 1014.0
20260901053016 77 0.0 2.0 0.00 0.21 0.00 84 1013.9
20260901052016 77 203 1.0 3.0 0.00 0.21 0.00 84 1013.9
20260901051016 77 0.0 1.0 0.00 0.21 0.00 84 1013.9
20260901050016 78 0.0 2.0 0.00 0.21 0.21 83 1013.9
20260901045017 78 0.0 1.0 0.00 0.21 0.21 83 1014.0
20260901044017 78 203 1.0 4.0 0.00 0.21 0.21 83 1014.0
20260901043016 78 225 1.0 3.0 0.00 0.21 0.21 83 1013.8
20260901042016 78 0.0 2.0 0.00 0.21 0.21 82 1013.8
20260901041017 78 203 1.0 4.0 0.00 0.21 0.21 82 1013.8
20260901040017 78 203 1.0 2.0 0.00 0.21 0.21 82 1013.8
20260901035017 78 203 1.0 3.0 0.00 0.21 0.21 82 1013.9
20260901034016 78 225 1.0 4.0 0.00 0.21 0.21 81 1014.0
20260901033016 79 203 1.0 3.0 0.00 0.21 0.21 81 1014.0
20260901032016 79 203 1.0 2.0 0.00 0.22 0.21 81 1014.1
20260901031017 79 0.0 1.0 0.00 0.23 0.21 80 1014.2
20260901030017 79 0.0 0.0 0.00 0.24 0.21 79 1014.0
20260901025017 80 0.0 1.0 0.00 0.24 0.21 78 1014.1
20260901024017 80 248 1.0 4.0 0.00 0.24 0.21 78 1014.0
20260901023016 80 225 3.0 5.0 0.00 0.24 0.21 78 1013.8
20260901022016 80 225 3.0 6.0 0.00 0.24 0.21 79 1013.9
20260901021017 80 203 3.0 6.0 0.00 0.24 0.21 79 1013.8
20260901020017 80 0.0 1.0 0.00 0.24 0.21 79 1014.4
20260901015017 80 0.0 1.0 0.00 0.26 0.21 78 1014.2
20260901014017 81 203 2.0 4.0 0.00 0.26 0.21 77 1014.1
20260901013017 81 203 1.0 3.0 0.00 0.26 0.21 77 1014.0
20260901012016 81 203 1.0 3.0 0.00 0.26 0.21 77 1013.9
20260901011016 81 203 2.0 4.0 0.00 0.26 0.21 78 1013.7
20260901010016 80 225 2.0 4.0 0.00 0.26 0.21 78 1013.6
20260901005016 80 203 1.0 3.0 0.00 0.26 0.21 79 1013.6
20260901004017 80 203 1.0 3.0 0.00 0.26 0.21 79 1013.7
20260901003017 81 203 1.0 3.0 0.00 0.26 0.21 79 1013.8
20260901002016 81 203 2.0 3.0 0.01 0.26 0.21 79 1013.8
20260901001016 81 225 2.0 4.0 0.01 0.26 0.21 78 1013.6
20260901000017 82 203 2.0 5.0 0.01 0.26 0.21 78 1013.5
20260831235016 82 225 1.0 2.0 0.01 0.27 0.21 78 1013.1
20260831234016 81 0.0 2.0 0.01 0.27 0.21 78 1013.1
20260831233016 82 225 1.0 3.0 0.01 0.27 0.21 79 1013.6
20260831232017 82 225 2.0 4.0 0.00 0.26 0.20 79 1013.9
20260831231016 82 203 2.0 5.0 0.00 0.26 0.20 80 1013.9
20260831230016 82 203 2.0 4.0 0.00 0.27 0.20 80 1013.6
20260831225017 82 225 2.0 4.0 0.00 0.27 0.20 79 1013.6
20260831224016 82 203 2.0 5.0 0.00 0.27 0.20 79 1013.4
20260831223016 82 180 1.0 5.0 0.01 0.27 0.20 80 1013.4
20260831222017 81 203 2.0 5.0 0.01 0.27 0.20 82 1013.3
20260831221017 80 225 2.0 4.0 0.01 0.27 0.20 84 1013.6